Regional Weather Roundup
Issued by NWS

Home | Current Version | Previous Version | Text Only | Print | Product List | Glossary Off
Versions: 1 2 3 4 5 6 7 8 9 10 11 12 13 14 15 16 17 18 19 20 21 22 23 24 25 26 27 28 29 30 31 32 33 34 35 36 37 38 39 40 41 42 43 44 45 46 47 48 49 50

000
ASUS45 KSLC 260610
RWRUT

UTAH REGIONAL WEATHER ROUNDUP
NATIONAL WEATHER SERVICE SALT LAKE CITY UT
1200 AM MDT TUE MAY 26 2015

UTZ001>011-023>025-260700-

NORTHERN UTAH

CITY           SKY/WX    TMP DP  RH WIND       PRES   REMARKS
BRIGHAM CITY   PTCLDY    54  49  82 N3        29.98R
HILL AFB       PTCLDY    55  43  62 E8        29.99
LOGAN          CLEAR     47  45  93 NW3       29.99R
OGDEN          MOCLDY    56  46  69 S8        29.98R
PROVO AIRPORT  PTCLDY    55  45  67 SE6       29.99S
SALT LAKE CITY PTCLDY    59  46  62 SE7       29.97S
VERNAL         PTCLDY    48  43  82 W5        30.03S
WENDOVER       CLOUDY    55  48  76 SW7       30.00S
HEBER CITY     PTCLDY    45  41  87 E5        30.03S
WEST JORDAN    CLEAR     54  46  76 CALM      30.00S

$$

UTZ012>022-026-027-260700-

SOUTHERN/CENTRAL UTAH

CITY           SKY/WX    TMP DP  RH WIND       PRES   REMARKS
BLANDING       CLEAR     46  44  92 N7        30.16S
CEDAR CITY     MOCLDY    56  41  57 S6        30.03S
DELTA          CLOUDY    57  46  67 NE5       30.02S
HANKSVILLE     PTCLDY    59  45  58 CALM      30.01R
MILFORD        CLOUDY    59  49  69 S8        29.99S
MOAB/CYNLANDS  CLEAR     57  41  55 CALM      29.97S
PRICE          MOCLDY    50  40  68 N7        30.04S
ST GEORGE      PTCLDY    70  43  37 CALM      29.94R
KANAB          CLEAR     52  46  82 NE3       30.07R

$$

REGIONAL REPORTS     COLORADO/ARIZONA

CITY           SKY/WX    TMP DP  RH WIND       PRES   REMARKS
CRAIG, CO      CLOUDY   N/A N/A N/A NE3       30.08S
GRAND JUNCTION MOCLDY    55  44  66 NE12      30.01S
RIFLE          MOCLDY    48  45  89 S5        30.09S
MONTROSE       PTCLDY    48  41  76 SE6       30.09S
CORTEZ         CLEAR     44  42  93 NE3       30.09F
PAGE, AZ       CLEAR     64  44  48 SW5       29.98R
GRAND CANYON     N/A     41  39  93 CALM      30.13S
KINGMAN        CLEAR     68  36  30 SW12      29.97R
FLAGSTAFF      PTCLDY    45  42  89 SW6       30.16S

$$

REGIONAL REPORTS    NEVADA/IDAHO/WYOMING

CITY           SKY/WX    TMP DP  RH WIND       PRES   REMARKS
LAS VEGAS, NV  PTCLDY    80  42  25 SW12      29.80R
ELY            LGT RAIN  49  45  86 W3        30.11R
ELKO           PTCLDY    48  45  89 S3        30.03R
POCATELLO, ID  CLOUDY    55  48  77 SE5       29.96S
BURLEY         PTCLDY    53  46  77 SW10      29.94R
EVANSTON, WY   PTCLDY    44  39  82 S3        30.08F
ROCK SPRINGS   CLEAR     44  40  85 SW8       30.06S
KEMMERER       PTCLDY    41  37  87 CALM      30.08F

$$



USA.gov is the U.S. government's official web portal to all federal, state and local government web resources and services.